,

(GMT )
Resia Pass

Weather History for LIVE - January, 2014

Change the Weather History Date:

Saturday, January 11, 2014

  Actual Average Record
Temperature  
Mean Temperature 34 °F -  
Max Temperature 35 °F 34 °F 50 °F (2007)
Min Temperature 33 °F 17 °F 3 °F (2003)
Degree Days  
Heating Degree Days 31    
Moisture  
Dew Point 30 °F    
Average Humidity 84    
Maximum Humidity 93    
Minimum Humidity 75    
Precipitation  
Precipitation 0.00 in - - ()
Sea Level Pressure  
Sea Level Pressure 30.09 in    
Wind  
Wind Speed 1 mph ()    
Max Wind Speed 7 mph    
Max Gust Speed -    
Visibility 6.2 miles    
Events      
Averages and records for this station are not official NWS values.
T = Trace of Precipitation, MM = Missing Value Source: Averaged Metar Reports

Daily Weather History Graph

Daily Weather History Graph

Search for Another Location

Airport or City:

Trip Planner

Search our weather history database for the weather conditions in past years. The results will help you decide how hot, cold, wet, or windy it might be!

Date:

Astronomy

Jan. 11, 2014 Rise Set
Actual Time 8:01 AM CET 4:51 PM CET
Civil Twilight 7:26 AM CET 5:25 PM CET
Nautical Twilight 6:48 AM CET 6:03 PM CET
Astronomical Twilight 6:12 AM CET 6:40 PM CET
Moon 1:27 PM CET (1/11) 3:46 AM CET (1/11)
Length of Visible Light 9h 59m
Length of Day
8h 50m
Waxing Gibbous, 81% of the Moon is Illuminated
Jan 11
Waxing Gibbous
Jan 16
Full
Jan 24
Last Quarter
Jan 30
New
Feb 6
First Quarter

Hourly Weather History & Observations

Time (CET) Temp. Windchill Dew Point Humidity Pressure Visibility Wind Dir Wind Speed Gust Speed Precip Events Conditions
12:55 AM 33.8 °F - 32.0 °F 93% 30.06 in 6.2 mi Calm Calm - N/A   Mostly Cloudy
1:55 AM 33.8 °F - 32.0 °F 93% 30.06 in 6.2 mi Calm Calm - N/A   Mostly Cloudy
2:55 AM 33.8 °F - 32.0 °F 93% 30.06 in 6.2 mi Calm Calm - N/A   Mostly Cloudy
3:55 AM 33.8 °F - 32.0 °F 93% 30.09 in 6.2 mi Calm Calm - N/A   Mostly Cloudy
4:55 AM 33.8 °F - 30.2 °F 87% 30.09 in 6.2 mi Calm Calm - N/A   Mostly Cloudy
5:55 AM 33.8 °F - 30.2 °F 87% 30.09 in 6.2 mi Calm Calm - N/A   Mostly Cloudy
6:55 AM 33.8 °F - 30.2 °F 87% 30.06 in 6.2 mi Calm Calm - N/A   Mostly Cloudy
7:55 AM 33.8 °F - 30.2 °F 87% 30.06 in 6.2 mi Calm Calm - N/A   Overcast
8:55 AM 33.8 °F - 30.2 °F 87% 30.09 in 6.2 mi Calm Calm - N/A   Overcast
9:55 AM 33.8 °F 30.8 °F 28.4 °F 81% 30.09 in 6.2 mi South 3.5 mph - N/A   Overcast
10:55 AM 35.6 °F - 28.4 °F 75% 30.09 in 6.2 mi Calm Calm - N/A   Overcast
11:55 AM 35.6 °F 31.7 °F 28.4 °F 75% 30.09 in 6.2 mi SE 4.6 mph - N/A   Mostly Cloudy
12:55 PM 35.6 °F 30.7 °F 28.4 °F 75% 30.09 in 6.2 mi South 5.8 mph - N/A   Mostly Cloudy
1:55 PM 35.6 °F 31.7 °F 28.4 °F 75% 30.06 in 6.2 mi South 4.6 mph - N/A   Mostly Cloudy
2:55 PM 35.6 °F 31.7 °F 30.2 °F 81% 30.06 in 6.2 mi South 4.6 mph - N/A   Overcast
3:55 PM 35.6 °F 32.8 °F 30.2 °F 81% 30.09 in 6.2 mi South 3.5 mph - N/A   Overcast
4:55 PM 35.6 °F 32.8 °F 30.2 °F 81% 30.09 in 6.2 mi SSW 3.5 mph - N/A   Overcast
5:55 PM 35.6 °F 32.8 °F 30.2 °F 81% 30.09 in 6.2 mi NNW 3.5 mph - N/A   Overcast
6:55 PM 33.8 °F - 28.4 °F 81% 30.09 in 6.2 mi Calm Calm - N/A   Overcast
7:55 PM 33.8 °F - 28.4 °F 81% 30.09 in 6.2 mi Calm Calm - N/A   Mostly Cloudy
8:55 PM 33.8 °F 28.6 °F 30.2 °F 87% 30.12 in 6.2 mi North 5.8 mph - N/A   Mostly Cloudy
9:55 PM 33.8 °F 27.7 °F 28.4 °F 81% 30.12 in 6.2 mi North 6.9 mph - N/A   Mostly Cloudy
10:55 PM 33.8 °F 29.6 °F 28.4 °F 81% 30.12 in 6.2 mi North 4.6 mph - N/A   Mostly Cloudy
11:55 PM 33.8 °F 29.6 °F 28.4 °F 81% 30.12 in 6.2 mi North 4.6 mph - N/A   Mostly Cloudy